Flag for Germany Weather past 2 weeks in Gelsenkirchen, North Rhine-Westphalia, Germany

Now
54 °F

Fog.


Feels Like: 54 °F
Forecast: 54 / 76 °F
Wind: 2 mph from East

Location: Duesseldorf

Current Time: Sep 3, 2014 at 4:40:28 AM

Latest Report: Sep 3, 2014 at 4:00 AM


Visibility: 8 mi

Pressure: 30.22 "Hg

Humidity: 95%

Dew point: 53 °F

Location of GelsenkirchenLocation

Historic Weather in Gelsenkirchen — Graph

°F

Gelsenkirchen temperature yesterday

Maximum temperature yesterday: 68 °F (at 2:00 PM)
Minimum temperature yesterday: 49 °F (at 6:00 AM)
Average temperature yesterday: 59 °F

Past Weeks' High & Low Weather Summary

 TemperatureHumidityPressure
High72 °F (Aug 28, 3:00 PM)97% (Sep 1, 9:00 AM)30.23 "Hg (Sep 1, 9:00 AM)
Low45 °F (Aug 21, 6:00 AM)42% (Aug 27, 6:00 PM)29.63 "Hg (Aug 26, 6:00 AM)
Average58 °F79%29.98 "Hg
* Reported Aug 19 3:00 AM — Sep 3 3:00 AM, Gelsenkirchen, Weather by CustomWeather, © 2014

Note: Actual official high and low records may vary slightly from our data, if they occured in-between our weather recording intervals... More about our weather records

Advertising

Gelsenkirchen weather history for previous 24 hours

 ConditionsComfort  
Time TempWeatherWind HumidityBarometerVisibility
3:00 AM
Sep 3
58 °FFog.3 mph92%30.23 "Hg7 mi
2:00 AM58 °FFog.2 mph95%30.23 "Hg7 mi
1:00 AM57 °FFog.1 mph92%30.23 "Hg9 mi
12:00 AM60 °FPassing clouds.3 mph89%30.23 "Hg9 mi
10:00 PM
Sep 2
59 °FPassing clouds.2 mph93%30.23 "Hg7 mi
9:00 PM59 °FFog.1 mph90%30.22 "Hg6 mi
8:00 PM63 °FScattered clouds.2 mph81%30.20 "Hg9 mi
7:00 PM64 °FOvercast.3 mph79%30.20 "Hg12 mi
6:00 PM65 °FOvercast.3 mph78%30.19 "Hg16 mi
4:00 PM66 °FOvercast.5 mph74%30.20 "Hg25 mi
3:00 PM67 °FOvercast.5 mph67%30.19 "Hg25 mi
2:00 PM68 °FPartly sunny.5 mph61%30.19 "Hg25 mi
1:00 PM68 °FScattered clouds.3 mph61%30.19 "Hg19 mi
12:00 PM66 °FPassing clouds.3 mph62%30.20 "Hg12 mi
10:00 AM63 °FPassing clouds.1 mph72%30.19 "Hg9 mi
9:00 AM58 °FPassing clouds.1 mph88%30.19 "Hg7 mi
8:00 AM52 °FPassing clouds.2 mph95%30.18 "Hg6 mi
7:00 AM50 °FFog.1 mph96%30.17 "Hg9 mi
6:00 AM49 °FFog.1 mph95%30.15 "Hg12 mi
4:00 AM50 °FFog.1 mph95%30.16 "Hg12 mi
Weather by CustomWeather, © 2014

See weather overviewHow to use our weather pages